Weather History for Pampa, TX

Change the Weather History Date:

Monday, February 4, 2013

  Actual Average Record
Temperature  
Mean Temperature 44 °F -  
Max Temperature 57 °F 49 °F 72 °F (1971)
Min Temperature 30 °F 22 °F -6 °F (1989)
Degree Days  
Heating Degree Days 20    
Moisture  
Dew Point 23 °F    
Average Humidity 46    
Maximum Humidity 66    
Minimum Humidity 23    
Precipitation  
Precipitation 0.00 in - - ()
Sea Level Pressure  
Sea Level Pressure 29.92 in    
Wind  
Wind Speed 10 mph (NNE)    
Max Wind Speed 16 mph    
Max Gust Speed 23 mph    
Visibility 10 miles    
Events      
Averages and records for this station are not official NWS values.
T = Trace of Precipitation, MM = Missing Value Source: NWS Daily Summary

Daily Weather History Graph

Daily Weather History Graph

Search for Another Location

Airport:

Trip Planner

Search our weather history database for the weather conditions in past years. The results will help you decide how hot, cold, wet, or windy it might be!

Date:

Astronomy

Feb. 04, 2013 Rise Set
Actual Time 7:41 AM CST 6:15 PM CST
Civil Twilight 7:14 AM CST 6:41 PM CST
Nautical Twilight 6:44 AM CST 7:12 PM CST
Astronomical Twilight 6:14 AM CST 7:42 PM CST
Moon 2:16 AM CST (2/4) 12:43 PM CST (2/4)
Length of Visible Light 11h 27m
Length of Day
10h 33m
Last Quarter, 37% of the Moon is Illuminated
Feb 4
Last Quarter
Feb 10
New
Feb 17
First Quarter
Feb 25
Full
Mar 4
Last Quarter

Hourly Weather History & Observations

Time (CST) Temp. Windchill Dew Point Humidity Pressure Visibility Wind Dir Wind Speed Gust Speed Precip Events Conditions
12:15 AM 50.0 °F - 33.8 °F 54% 29.84 in 10.0 mi SSW 10.4 mph - N/A   Scattered Clouds
12:35 AM 50.0 °F - 33.8 °F 54% 29.84 in 10.0 mi SSW 9.2 mph - N/A   Scattered Clouds
12:55 AM 48.2 °F - 33.8 °F 58% 29.82 in 10.0 mi SSW 11.5 mph - N/A   Clear
1:15 AM 46.4 °F 41.5 °F 33.8 °F 62% 29.82 in 10.0 mi SSW 10.4 mph - N/A   Clear
1:35 AM 46.4 °F 40.4 °F 32.0 °F 57% 29.81 in 10.0 mi SW 13.8 mph - N/A   Clear
1:55 AM 46.4 °F 40.7 °F 32.0 °F 57% 29.80 in 10.0 mi SW 12.7 mph - N/A   Clear
2:15 AM 46.4 °F 40.7 °F 32.0 °F 57% 29.80 in 10.0 mi SW 12.7 mph - N/A   Clear
2:35 AM 44.6 °F 39.2 °F 32.0 °F 61% 29.80 in 10.0 mi SW 10.4 mph - N/A   Clear
2:55 AM 42.8 °F 37.5 °F 32.0 °F 66% 29.80 in 10.0 mi WSW 9.2 mph - N/A   Clear
3:15 AM 42.8 °F 37.5 °F 30.2 °F 61% 29.80 in 10.0 mi West 9.2 mph - N/A   Clear
4:55 AM 41.0 °F 33.9 °F 28.4 °F 61% 29.82 in 10.0 mi NW 12.7 mph - N/A   Clear
5:15 AM 39.2 °F 30.8 °F 28.4 °F 65% 29.83 in 10.0 mi NNW 15.0 mph - N/A   Clear
5:35 AM 37.4 °F 28.5 °F 26.6 °F 65% 29.84 in 10.0 mi North 15.0 mph 19.6 mph N/A   Clear
5:55 AM 35.6 °F 26.6 °F 23.0 °F 60% 29.85 in 10.0 mi North 13.8 mph - N/A   Clear
6:15 AM 35.6 °F 26.6 °F 23.0 °F 60% 29.87 in 10.0 mi North 13.8 mph - N/A   Clear
6:35 AM 35.6 °F 27.5 °F 23.0 °F 60% 29.89 in 10.0 mi North 11.5 mph - N/A   Clear
6:55 AM 35.6 °F 27.5 °F 23.0 °F 60% 29.90 in 10.0 mi North 11.5 mph - N/A   Clear
7:15 AM 35.6 °F 27.1 °F 21.2 °F 56% 29.90 in 10.0 mi North 12.7 mph - N/A   Clear
7:35 AM 33.8 °F 26.4 °F 21.2 °F 60% 29.91 in 10.0 mi North 9.2 mph - N/A   Clear
7:55 AM 33.8 °F 24.8 °F 21.2 °F 60% 29.92 in 10.0 mi North 12.7 mph - N/A   Clear
8:15 AM 33.8 °F 26.4 °F 21.2 °F 60% 29.93 in 10.0 mi NNW 9.2 mph - N/A   Clear
8:35 AM 35.6 °F 28.6 °F 21.2 °F 56% 29.94 in 10.0 mi North 9.2 mph - N/A   Clear
8:55 AM 33.8 °F 26.4 °F 21.2 °F 60% 29.96 in 10.0 mi NNW 9.2 mph - N/A   Clear
9:15 AM 33.8 °F 23.9 °F 21.2 °F 60% 29.96 in 10.0 mi North 15.0 mph 19.6 mph N/A   Clear
9:35 AM 37.4 °F 28.2 °F 23.0 °F 56% 29.97 in 10.0 mi North 16.1 mph 23.0 mph N/A   Clear
9:55 AM 39.2 °F 30.8 °F 23.0 °F 52% 29.97 in 10.0 mi North 15.0 mph 21.9 mph N/A   Clear
10:15 AM 41.0 °F 33.9 °F 23.0 °F 49% 29.97 in 10.0 mi NNE 12.7 mph - N/A   Clear
10:35 AM 42.8 °F 35.1 °F 23.0 °F 46% 29.98 in 10.0 mi NNE 16.1 mph - N/A   Clear
10:55 AM 44.6 °F 38.1 °F 23.0 °F 43% 29.98 in 10.0 mi NNE 13.8 mph 20.7 mph N/A   Clear
11:15 AM 46.4 °F 39.8 °F 21.2 °F 37% 29.99 in 10.0 mi NE 16.1 mph - N/A   Clear
11:35 AM 48.2 °F - 21.2 °F 34% 29.99 in 10.0 mi NNE 12.7 mph - N/A   Clear
11:55 AM 50.0 °F - 21.2 °F 32% 29.98 in 10.0 mi NNE 12.7 mph 19.6 mph N/A   Clear
12:15 PM 50.0 °F - 21.2 °F 32% 29.97 in 10.0 mi NNE 15.0 mph 19.6 mph N/A   Clear
12:35 PM 51.8 °F - 23.0 °F 33% 29.97 in 10.0 mi NNE 12.7 mph - N/A   Clear
12:55 PM 53.6 °F - 21.2 °F 28% 29.97 in 10.0 mi NNE 10.4 mph 16.1 mph N/A   Clear
1:15 PM 53.6 °F - 21.2 °F 28% 29.96 in 10.0 mi NNE 10.4 mph - N/A   Clear
1:35 PM 53.6 °F - 21.2 °F 28% 29.96 in 10.0 mi NNE 10.4 mph 17.3 mph N/A   Clear
1:55 PM 55.4 °F - 21.2 °F 26% 29.95 in 10.0 mi NNE 8.1 mph 17.3 mph N/A   Clear
2:15 PM 55.4 °F - 19.4 °F 25% 29.95 in 10.0 mi NE 8.1 mph 17.3 mph N/A   Clear
2:35 PM 55.4 °F - 19.4 °F 25% 29.94 in 10.0 mi North 9.2 mph - N/A   Clear
2:55 PM 57.2 °F - 19.4 °F 23% 29.93 in 10.0 mi North 9.2 mph - N/A   Clear
3:15 PM 55.4 °F - 19.4 °F 25% 29.92 in 10.0 mi NNE 9.2 mph - N/A   Clear
3:35 PM 55.4 °F - 19.4 °F 25% 29.92 in 10.0 mi NNE 8.1 mph - N/A   Clear
3:55 PM 55.4 °F - 19.4 °F 25% 29.93 in 10.0 mi NNE 5.8 mph - N/A   Clear
4:15 PM 55.4 °F - 19.4 °F 25% 29.92 in 10.0 mi North 4.6 mph - N/A   Clear
4:35 PM 55.4 °F - 19.4 °F 25% 29.92 in 10.0 mi NE 4.6 mph - N/A   Clear
4:55 PM 55.4 °F - 17.6 °F 23% 29.92 in 10.0 mi NNE 4.6 mph - N/A   Clear
5:15 PM 55.4 °F - 17.6 °F 23% 29.92 in 10.0 mi NE 4.6 mph - N/A   Clear
5:35 PM 53.6 °F - 19.4 °F 26% 29.92 in 10.0 mi NNE 3.5 mph - N/A   Clear
5:55 PM 51.8 °F - 19.4 °F 28% 29.93 in 10.0 mi NNE 3.5 mph - N/A   Clear
6:15 PM 50.0 °F - 19.4 °F 30% 29.93 in 10.0 mi Calm Calm - N/A   Clear
6:35 PM 46.4 °F 45.2 °F 19.4 °F 34% 29.94 in 10.0 mi East 3.5 mph - N/A   Clear
7:15 PM 46.4 °F 44.3 °F 19.4 °F 34% 29.95 in 10.0 mi East 4.6 mph - N/A   Clear
7:35 PM 46.4 °F 44.3 °F 19.4 °F 34% 29.95 in 10.0 mi ESE 4.6 mph - N/A   Clear
7:55 PM 44.6 °F 41.4 °F 19.4 °F 37% 29.96 in 10.0 mi ESE 5.8 mph - N/A   Clear
8:35 PM 41.0 °F 37.1 °F 17.6 °F 39% 29.96 in 10.0 mi SSE 5.8 mph - N/A   Clear
8:55 PM 37.4 °F 32.1 °F 19.4 °F 48% 29.97 in 10.0 mi South 6.9 mph - N/A   Clear
9:15 PM 33.8 °F 27.7 °F 19.4 °F 56% 29.97 in 10.0 mi SSE 6.9 mph - N/A   Clear
9:35 PM 33.8 °F 28.6 °F 19.4 °F 56% 29.97 in 10.0 mi SSE 5.8 mph - N/A   Clear
9:55 PM 32.0 °F 25.6 °F 19.4 °F 60% 29.97 in 10.0 mi South 6.9 mph - N/A   Clear
10:15 PM 32.0 °F 24.8 °F 19.4 °F 60% 29.97 in 10.0 mi South 8.1 mph - N/A   Clear
10:35 PM 32.0 °F 24.8 °F 19.4 °F 60% 29.97 in 10.0 mi South 8.1 mph - N/A   Clear
10:55 PM 32.0 °F 24.2 °F 19.4 °F 60% 29.96 in 10.0 mi South 9.2 mph - N/A   Clear
11:15 PM 32.0 °F 24.8 °F 17.6 °F 55% 29.96 in 10.0 mi South 8.1 mph - N/A   Clear
11:35 PM 32.0 °F 23.6 °F 19.4 °F 60% 29.96 in 10.0 mi South 10.4 mph - N/A   Clear
11:55 PM 30.2 °F 21.3 °F 17.6 °F 60% 29.95 in 10.0 mi South 10.4 mph - N/A   Clear